| time (UTC) | temp F | wind direction | speed MPH | gust MPH | rain 1hr in | rain 24hr in | rain mn in | humidity % | barometer mb |
| 20260506010538 | 51 | 117 | 0.0 | 4.0 | 0.00 | 0.02 | 0.02 | 48 | 1007.0 |
| 20260506005537 | 51 | 0 | 1.0 | 8.0 | 0.00 | 0.02 | 0.02 | 46 | 1007.0 |
| 20260506004537 | 51 | 0 | 0.0 | 3.0 | 0.00 | 0.02 | 0.02 | 47 | 1007.1 |
| 20260506003535 | 51 | 200 | 0.0 | 3.0 | 0.00 | 0.02 | 0.02 | 47 | 1007.0 |
| 20260506003505 | 52 | 176 | 0.0 | 3.0 | 0.00 | 0.02 | 0.02 | 48 | 1006.9 |
| 20260506002747 | 52 | 176 | 0.0 | 3.0 | 0.00 | 0.02 | 0.02 | 48 | 1006.9 |
| 20260506002015 | 52 | 0 | 0.0 | 4.0 | 0.00 | 0.02 | 0.02 | 47 | 1006.7 |
| 20260506001746 | 52 | 0 | 0.0 | 4.0 | 0.00 | 0.02 | 0.02 | 47 | 1006.7 |
| 20260506000534 | 52 | 0 | 1.0 | 6.0 | 0.00 | 0.02 | 0.02 | 47 | 1006.6 |
| 20260505235536 | 53 | 0 | 0.0 | 3.0 | 0.00 | 0.02 | 0.02 | 48 | 1006.5 |
| 20260505235456 | 53 | 0 | 1.0 | 9.0 | 0.00 | 0.02 | 0.02 | 48 | 1006.4 |
| 20260505234536 | 53 | 0 | 1.0 | 9.0 | 0.00 | 0.02 | 0.02 | 48 | 1006.4 |
| 20260505234021 | 53 | 0 | 0.0 | 4.0 | 0.00 | 0.02 | 0.02 | 51 | 1006.3 |
| 20260505233748 | 53 | 0 | 0.0 | 4.0 | 0.00 | 0.02 | 0.02 | 51 | 1006.3 |
| 20260505233019 | 53 | 0 | 0.0 | 2.0 | 0.00 | 0.02 | 0.02 | 56 | 1006.2 |
| 20260505232538 | 53 | 0 | 0.0 | 2.0 | 0.00 | 0.02 | 0.02 | 56 | 1006.2 |
| 20260505231533 | 54 | 197 | 0.0 | 4.0 | 0.00 | 0.02 | 0.02 | 54 | 1006.2 |
| 20260505231440 | 54 | 300 | 0.0 | 2.0 | 0.00 | 0.02 | 0.02 | 55 | 1006.2 |
| 20260505230742 | 54 | 300 | 0.0 | 2.0 | 0.00 | 0.02 | 0.02 | 55 | 1006.2 |
| 20260505225530 | 54 | 0 | 0.0 | 3.0 | 0.00 | 0.02 | 0.02 | 54 | 1006.3 |
| 20260505225018 | 54 | 0 | 0.0 | 3.0 | 0.00 | 0.02 | 0.02 | 55 | 1006.4 |
| 20260505224742 | 54 | 0 | 0.0 | 3.0 | 0.00 | 0.02 | 0.02 | 55 | 1006.4 |
| 20260505223531 | 54 | 0 | 1.0 | 5.0 | 0.00 | 0.02 | 0.02 | 54 | 1006.3 |
| 20260505223013 | 54 | 0 | 0.0 | 5.0 | 0.00 | 0.02 | 0.02 | 56 | 1006.4 |
| 20260505222529 | 54 | 0 | 0.0 | 5.0 | 0.00 | 0.02 | 0.02 | 56 | 1006.4 |
| 20260505221529 | 55 | 265 | 1.0 | 6.0 | 0.00 | 0.02 | 0.02 | 53 | 1006.5 |
| 20260505220529 | 55 | 0 | 0.0 | 4.0 | 0.00 | 0.02 | 0.02 | 55 | 1006.5 |
| 20260505220008 | 55 | 241 | 1.0 | 4.0 | 0.00 | 0.02 | 0.02 | 57 | 1006.5 |
| 20260505215741 | 55 | 241 | 1.0 | 4.0 | 0.00 | 0.02 | 0.02 | 57 | 1006.5 |
| 20260505215014 | 54 | 188 | 1.0 | 6.0 | 0.00 | 0.02 | 0.02 | 57 | 1006.4 |
| 20260505214742 | 54 | 188 | 1.0 | 6.0 | 0.00 | 0.02 | 0.02 | 57 | 1006.4 |
| 20260505213530 | 54 | 339 | 1.0 | 4.0 | 0.00 | 0.02 | 0.02 | 59 | 1006.3 |
| 20260505212530 | 54 | 0 | 1.0 | 5.0 | 0.00 | 0.02 | 0.02 | 62 | 1006.4 |
| 20260505211530 | 54 | 237 | 1.0 | 5.0 | 0.00 | 0.02 | 0.02 | 63 | 1006.4 |
| 20260505211013 | 54 | 0 | 0.0 | 3.0 | 0.00 | 0.02 | 0.02 | 63 | 1006.5 |
| 20260505210528 | 54 | 0 | 0.0 | 3.0 | 0.00 | 0.02 | 0.02 | 63 | 1006.5 |
| 20260505205530 | 54 | 0 | 1.0 | 6.0 | 0.00 | 0.02 | 0.02 | 64 | 1006.4 |
| 20260505204530 | 54 | 238 | 1.0 | 4.0 | 0.00 | 0.02 | 0.02 | 61 | 1006.4 |
| 20260505203530 | 54 | 256 | 1.0 | 4.0 | 0.00 | 0.02 | 0.02 | 62 | 1006.4 |
| 20260505202529 | 55 | 0 | 1.0 | 7.0 | 0.00 | 0.02 | 0.02 | 60 | 1006.4 |
| 20260505201530 | 55 | 0 | 1.0 | 6.0 | 0.00 | 0.02 | 0.02 | 62 | 1006.4 |
| 20260505201459 | 54 | 298 | 0.0 | 3.0 | 0.00 | 0.02 | 0.02 | 65 | 1006.5 |
| 20260505200529 | 54 | 298 | 0.0 | 3.0 | 0.00 | 0.02 | 0.02 | 65 | 1006.5 |
| 20260505195530 | 54 | 0 | 1.0 | 4.0 | 0.00 | 0.02 | 0.02 | 62 | 1006.6 |
| 20260505195017 | 54 | 249 | 2.0 | 6.0 | 0.00 | 0.02 | 0.02 | 62 | 1006.6 |
| 20260505194529 | 54 | 249 | 2.0 | 6.0 | 0.00 | 0.02 | 0.02 | 62 | 1006.6 |
| 20260505194013 | 54 | 241 | 3.0 | 8.0 | 0.00 | 0.02 | 0.02 | 61 | 1006.6 |
| 20260505193529 | 54 | 241 | 3.0 | 8.0 | 0.00 | 0.02 | 0.02 | 61 | 1006.6 |
| 20260505192529 | 54 | 244 | 2.0 | 9.0 | 0.00 | 0.02 | 0.02 | 60 | 1006.7 |
| 20260505191530 | 55 | 0 | 2.0 | 9.0 | 0.00 | 0.02 | 0.02 | 58 | 1006.6 |
| 20260505190651 | 55 | 305 | 3.0 | 10.0 | 0.00 | 0.02 | 0.02 | 59 | 1006.6 |
| 20260505190529 | 55 | 232 | 2.0 | 8.0 | 0.00 | 0.02 | 0.02 | 59 | 1006.6 |
| 20260505190108 | 55 | 305 | 3.0 | 10.0 | 0.00 | 0.02 | 0.02 | 59 | 1006.6 |
| 20260505184530 | 55 | 290 | 3.0 | 8.0 | 0.00 | 0.02 | 0.02 | 59 | 1006.6 |
| 20260505184006 | 55 | 0 | 2.0 | 8.0 | 0.00 | 0.02 | 0.02 | 60 | 1006.4 |
| 20260505183740 | 55 | 0 | 2.0 | 8.0 | 0.00 | 0.02 | 0.02 | 60 | 1006.4 |
| 20260505183015 | 56 | 342 | 2.0 | 7.0 | 0.00 | 0.02 | 0.02 | 60 | 1006.2 |
| 20260505182529 | 56 | 342 | 2.0 | 7.0 | 0.00 | 0.02 | 0.02 | 60 | 1006.2 |
| 20260505182454 | 56 | 257 | 2.0 | 9.0 | 0.00 | 0.02 | 0.02 | 64 | 1006.0 |
| 20260505181529 | 56 | 257 | 2.0 | 9.0 | 0.00 | 0.02 | 0.02 | 64 | 1006.0 |
| 20260505180531 | 55 | 192 | 2.0 | 8.0 | 0.00 | 0.02 | 0.02 | 63 | 1006.0 |
| 20260505175529 | 55 | 0 | 2.0 | 6.0 | 0.00 | 0.02 | 0.02 | 68 | 1005.9 |
| 20260505174530 | 55 | 115 | 2.0 | 7.0 | 0.00 | 0.02 | 0.02 | 69 | 1005.7 |
| 20260505174012 | 54 | 277 | 1.0 | 5.0 | 0.00 | 0.02 | 0.02 | 68 | 1005.9 |
| 20260505173528 | 54 | 277 | 1.0 | 5.0 | 0.00 | 0.02 | 0.02 | 68 | 1005.9 |
| 20260505172530 | 54 | 0 | 2.0 | 4.0 | 0.00 | 0.02 | 0.02 | 70 | 1005.8 |
| 20260505171531 | 54 | 0 | 2.0 | 7.0 | 0.00 | 0.02 | 0.02 | 69 | 1005.8 |
| 20260505170531 | 54 | 227 | 1.0 | 6.0 | 0.00 | 0.02 | 0.02 | 73 | 1005.8 |
| 20260505165530 | 52 | 0 | 1.0 | 6.0 | 0.00 | 0.01 | 0.02 | 79 | 1006.0 |
| 20260505164529 | 51 | 0 | 0.0 | 2.0 | 0.01 | 0.01 | 0.02 | 79 | 1006.1 |
| 20260505163529 | 50 | 81 | 1.0 | 4.0 | 0.01 | 0.01 | 0.02 | 80 | 1006.0 |
| 20260505162530 | 50 | 146 | 1.0 | 6.0 | 0.01 | 0.01 | 0.02 | 80 | 1006.1 |
| 20260505162011 | 49 | 0 | 0.0 | 2.0 | 0.01 | 0.01 | 0.02 | 81 | 1006.1 |
| 20260505161739 | 49 | 0 | 0.0 | 2.0 | 0.01 | 0.01 | 0.02 | 81 | 1006.1 |
| 20260505160529 | 49 | 0 | 0.0 | 3.0 | 0.01 | 0.01 | 0.01 | 80 | 1006.1 |
| 20260505160224 | 50 | 318 | 1.0 | 3.0 | 0.01 | 0.00 | 0.01 | 76 | 1006.1 |
| 20260505160114 | 50 | 318 | 1.0 | 3.0 | 0.01 | 0.00 | 0.01 | 76 | 1006.1 |
| 20260505153014 | 51 | 320 | 3.0 | 7.0 | 0.00 | 0.00 | 0.00 | 72 | 1006.2 |
| 20260505152530 | 51 | 320 | 3.0 | 7.0 | 0.00 | 0.00 | 0.00 | 72 | 1006.2 |
| 20260505152013 | 52 | 295 | 2.0 | 5.0 | 0.00 | 0.00 | 0.00 | 69 | 1005.8 |
| 20260505151741 | 52 | 295 | 2.0 | 5.0 | 0.00 | 0.00 | 0.00 | 69 | 1005.8 |
| 20260505151005 | 51 | 0 | 0.0 | 2.0 | 0.00 | 0.00 | 0.00 | 69 | 1005.7 |
| 20260505150741 | 51 | 0 | 0.0 | 2.0 | 0.00 | 0.00 | 0.00 | 69 | 1005.7 |
| 20260505124529 | 52 | 55 | 3.0 | 9.0 | 0.00 | 0.00 | 0.00 | 71 | 1003.3 |
| 20260505124018 | 52 | 49 | 3.0 | 7.0 | 0.00 | 0.00 | 0.00 | 72 | 1003.2 |
| 20260505123742 | 52 | 49 | 3.0 | 7.0 | 0.00 | 0.00 | 0.00 | 72 | 1003.2 |
| 20260505123014 | 51 | 0 | 2.0 | 7.0 | 0.00 | 0.00 | 0.00 | 75 | 1003.1 |
| 20260505122530 | 51 | 0 | 2.0 | 7.0 | 0.00 | 0.00 | 0.00 | 75 | 1003.1 |
| 20260505122517 | 51 | 354 | 3.0 | 7.0 | 0.00 | 0.00 | 0.00 | 77 | 1003.2 |
| 20260505121531 | 51 | 354 | 3.0 | 7.0 | 0.00 | 0.00 | 0.00 | 77 | 1003.2 |
| 20260505121010 | 52 | 2 | 2.0 | 7.0 | 0.00 | 0.00 | 0.00 | 77 | 1003.1 |
| 20260505120744 | 52 | 2 | 2.0 | 7.0 | 0.00 | 0.00 | 0.00 | 77 | 1003.1 |
| 20260505115531 | 53 | 16 | 2.0 | 7.0 | 0.00 | 0.00 | 0.00 | 79 | 1002.8 |
| 20260505115010 | 56 | 92 | 4.0 | 11.0 | 0.00 | 0.00 | 0.00 | 80 | 1002.7 |
| 20260505114744 | 56 | 92 | 4.0 | 11.0 | 0.00 | 0.00 | 0.00 | 80 | 1002.7 |
| 20260505114007 | 56 | 221 | 1.0 | 5.0 | 0.00 | 0.00 | 0.00 | 79 | 1002.1 |
| 20260505113742 | 56 | 221 | 1.0 | 5.0 | 0.00 | 0.00 | 0.00 | 79 | 1002.1 |
| 20260505112942 | 55 | 276 | 1.0 | 3.0 | 0.00 | 0.01 | 0.00 | 83 | 1001.7 |
| 20260505112721 | 56 | 299 | 1.0 | 5.0 | 0.00 | 0.01 | 0.00 | 81 | 1002.0 |
| 20260505111741 | 55 | 276 | 1.0 | 3.0 | 0.00 | 0.01 | 0.00 | 83 | 1001.7 |
| 20260505110530 | 55 | 239 | 0.0 | 1.0 | 0.00 | 0.01 | 0.00 | 85 | 1001.7 |
| 20260505101512 | 56 | 211 | 1.0 | 3.0 | 0.00 | 0.01 | 0.00 | 85 | 1000.6 |
| 20260505100511 | 56 | 223 | 1.0 | 3.0 | 0.00 | 0.01 | 0.00 | 85 | 1000.5 |
| 20260505095949 | 57 | 201 | 2.0 | 3.0 | 0.00 | 0.01 | 0.00 | 84 | 1000.2 |
| 20260505095503 | 57 | 201 | 2.0 | 3.0 | 0.00 | 0.01 | 0.00 | 84 | 1000.2 |
| 20260505094936 | 57 | 217 | 1.0 | 4.0 | 0.00 | 0.01 | 0.00 | 83 | 1000.2 |
| 20260505094714 | 57 | 217 | 1.0 | 4.0 | 0.00 | 0.01 | 0.00 | 83 | 1000.2 |
| 20260505093502 | 58 | 188 | 2.0 | 4.0 | 0.00 | 0.01 | 0.00 | 82 | 1000.0 |
| 20260505092502 | 58 | 223 | 2.0 | 5.0 | 0.00 | 0.01 | 0.00 | 80 | 999.9 |
| 20260505092159 | 58 | 231 | 2.0 | 8.0 | 0.00 | 0.01 | 0.00 | 79 | 999.8 |
| 20260505092038 | 58 | 231 | 2.0 | 8.0 | 0.00 | 0.01 | 0.00 | 79 | 999.8 |
| 20260505090502 | 59 | 215 | 2.0 | 5.0 | 0.00 | 0.01 | 0.00 | 77 | 999.8 |
| 20260505085502 | 59 | 232 | 2.0 | 4.0 | 0.00 | 0.01 | 0.00 | 76 | 999.8 |
| 20260505084502 | 59 | 224 | 2.0 | 4.0 | 0.00 | 0.01 | 0.00 | 75 | 999.8 |
| 20260505084149 | 60 | 231 | 2.0 | 4.0 | 0.00 | 0.01 | 0.00 | 74 | 999.7 |
| 20260505084004 | 60 | 231 | 2.0 | 4.0 | 0.00 | 0.01 | 0.00 | 74 | 999.7 |
| 20260505083221 | 60 | 226 | 2.0 | 4.0 | 0.00 | 0.01 | 0.00 | 73 | 999.6 |
| 20260505083023 | 60 | 226 | 2.0 | 4.0 | 0.00 | 0.01 | 0.00 | 73 | 999.6 |
| 20260505083019 | 60 | 223 | 2.0 | 4.0 | 0.00 | 0.01 | 0.00 | 74 | 999.5 |
| 20260505082509 | 60 | 223 | 2.0 | 4.0 | 0.00 | 0.01 | 0.00 | 74 | 999.5 |
| 20260505080502 | 60 | 237 | 2.0 | 4.0 | 0.00 | 0.01 | 0.00 | 73 | 999.5 |
| 20260505075940 | 60 | 224 | 2.0 | 4.0 | 0.00 | 0.01 | 0.00 | 73 | 999.4 |
| 20260505075500 | 60 | 224 | 2.0 | 4.0 | 0.00 | 0.01 | 0.00 | 73 | 999.4 |
| 20260505074502 | 60 | 246 | 2.0 | 4.0 | 0.00 | 0.01 | 0.00 | 73 | 999.1 |
| 20260505073501 | 60 | 223 | 1.0 | 3.0 | 0.00 | 0.01 | 0.00 | 74 | 998.9 |
| 20260505072932 | 60 | 233 | 2.0 | 3.0 | 0.00 | 0.01 | 0.00 | 73 | 998.7 |
| 20260505072713 | 60 | 233 | 2.0 | 3.0 | 0.00 | 0.01 | 0.00 | 73 | 998.7 |
| 20260505071500 | 60 | 229 | 1.0 | 3.0 | 0.00 | 0.01 | 0.00 | 73 | 998.7 |
| 20260505070503 | 60 | 205 | 2.0 | 5.0 | 0.00 | 0.01 | 0.00 | 73 | 998.9 |
| 20260505065935 | 60 | 0 | 1.0 | 4.0 | 0.00 | 0.01 | 0.00 | 73 | 999.2 |
| 20260505065713 | 60 | 0 | 1.0 | 4.0 | 0.00 | 0.01 | 0.00 | 73 | 999.2 |
| 20260505064501 | 60 | 209 | 1.0 | 3.0 | 0.00 | 0.01 | 0.00 | 73 | 998.9 |
| 20260505064120 | 61 | 226 | 1.0 | 3.0 | 0.00 | 0.01 | 0.00 | 72 | 999.1 |
| 20260505063923 | 61 | 226 | 1.0 | 5.0 | 0.00 | 0.01 | 0.00 | 72 | 999.3 |
| 20260505063637 | 61 | 226 | 1.0 | 3.0 | 0.00 | 0.01 | 0.00 | 72 | 999.1 |
| 20260505062503 | 61 | 226 | 1.0 | 5.0 | 0.00 | 0.01 | 0.00 | 72 | 999.3 |
| 20260505061508 | 61 | 231 | 2.0 | 5.0 | 0.00 | 0.01 | 0.00 | 72 | 999.5 |
| 20260505060501 | 62 | 210 | 2.0 | 6.0 | 0.00 | 0.01 | 0.00 | 70 | 999.5 |
| 20260505055939 | 62 | 222 | 2.0 | 4.0 | 0.00 | 0.00 | 0.00 | 69 | 999.2 |
| 20260505055713 | 62 | 222 | 2.0 | 4.0 | 0.00 | 0.00 | 0.00 | 69 | 999.2 |
| 20260505054502 | 63 | 235 | 2.0 | 4.0 | 0.00 | 0.00 | 0.00 | 69 | 999.0 |
| 20260505053502 | 63 | 245 | 2.0 | 4.0 | 0.00 | 0.00 | 0.00 | 68 | 999.1 |
| 20260505052502 | 63 | 231 | 2.0 | 4.0 | 0.00 | 0.00 | 0.00 | 68 | 999.0 |
| 20260505051502 | 64 | 212 | 2.0 | 4.0 | 0.00 | 0.00 | 0.00 | 70 | 999.1 |
| 20260505050940 | 65 | 162 | 3.0 | 8.0 | 0.00 | 0.00 | 0.00 | 70 | 999.4 |
| 20260505050502 | 65 | 162 | 3.0 | 8.0 | 0.00 | 0.00 | 0.00 | 70 | 999.4 |
| 20260505041502 | 63 | 198 | 2.0 | 4.0 | 0.00 | 0.00 | 0.00 | 71 | 998.8 |
| 20260505040504 | 63 | 153 | 2.0 | 6.0 | 0.00 | 0.00 | 0.00 | 72 | 998.8 |
| 20260505035814 | 0 | 0.0 | 0.0 | 0.00 | 0.00 | 0.00 | |||
| 20260505035630 | 0 | 0.0 | 0.0 | 0.00 | 0.00 | 0.00 | |||
| 20260505035625 | 0 | 0.0 | 0.0 | 0.00 | 0.00 | 0.00 | |||
| 20260505035621 | 0 | 0.0 | 0.0 | 0.00 | 0.00 | 0.00 | |||
| 20260505035615 | 0 | 0.0 | 0.0 | 0.00 | 0.00 | 0.00 | |||
| 20260505035607 | 0 | 0.0 | 0.0 | 0.00 | 0.00 | 0.00 | |||
| 20260505035603 | 76 | 293 | 4.0 | 10.0 | 0.00 | 0.00 | 0.00 | 31 | 1000.2 |
| 20260505035557 | 0 | 0.0 | 0.0 | 0.00 | 0.00 | 0.00 | |||
| 20260505035552 | 0 | 0.0 | 0.0 | 0.00 | 0.00 | 0.00 | |||
| 20260505035541 | 63 | 179 | 2.0 | 8.0 | 0.00 | 0.00 | 0.00 | 72 | 998.9 |
| 20260505035316 | 63 | 183 | 2.0 | 7.0 | 0.00 | 0.00 | 0.00 | 72 | 998.9 |
| 20260505035029 | 0 | 0.0 | 0.0 | 0.00 | 0.00 | 0.00 | |||
| 20260505034913 | 63 | 183 | 2.0 | 7.0 | 0.00 | 0.00 | 0.00 | 72 | 998.9 |
| 20260505034441 | 0 | 0.0 | 0.0 | 0.00 | 0.00 | 0.00 | |||
| 20260505034436 | 0 | 0.0 | 0.0 | 0.00 | 0.00 | 0.00 | |||
| 20260505034150 | 0 | 0.0 | 0.0 | 0.00 | 0.00 | 0.00 | |||
| 20260505034145 | 0 | 0.0 | 0.0 | 0.00 | 0.00 | 0.00 | |||
| 20260505034141 | 62 | 263 | 2.0 | 4.0 | 0.00 | 0.00 | 0.00 | 73 | 998.9 |
| 20260505033622 | 62 | 263 | 2.0 | 4.0 | 0.00 | 0.00 | 0.00 | 73 | 998.9 |
| 20260505033131 | 0 | 0.0 | 0.0 | 0.00 | 0.00 | 0.00 | |||
| 20260505033126 | 76 | 293 | 4.0 | 10.0 | 0.00 | 0.00 | 0.00 | 31 | 1000.2 |
| 20260505033115 | 62 | 172 | 2.0 | 4.0 | 0.00 | 0.00 | 0.00 | 74 | 999.0 |
| 20260505032841 | 76 | 144 | 3.0 | 9.0 | 0.00 | 0.00 | 0.00 | 31 | 1000.2 |
| 20260505032833 | 0 | 0.0 | 0.0 | 0.00 | 0.00 | 0.00 | |||
| 20260505032553 | 62 | 172 | 2.0 | 4.0 | 0.00 | 0.00 | 0.00 | 74 | 999.0 |
| 20260505032327 | 0 | 0.0 | 0.0 | 0.00 | 0.00 | 0.00 | |||
| 20260505032319 | 0 | 0.0 | 0.0 | 0.00 | 0.00 | 0.00 | |||
| 20260505032313 | 0 | 0.0 | 0.0 | 0.00 | 0.00 | 0.00 | |||
| 20260505032038 | 62 | 87 | 2.0 | 4.0 | 0.00 | 0.00 | 0.00 | 75 | 999.2 |
| 20260505031809 | 0 | 0.0 | 0.0 | 0.00 | 0.00 | 0.00 | |||
| 20260505031758 | 0 | 0.0 | 0.0 | 0.00 | 0.00 | 0.00 | |||
| 20260505031750 | 0 | 0.0 | 0.0 | 0.00 | 0.00 | 0.00 | |||
| 20260505031740 | 0 | 0.0 | 0.0 | 0.00 | 0.00 | 0.00 | |||
| 20260505031736 | 0 | 0.0 | 0.0 | 0.00 | 0.00 | 0.00 | |||
| 20260505031714 | 62 | 87 | 2.0 | 4.0 | 0.00 | 0.00 | 0.00 | 75 | 999.2 |
| 20260505031228 | 0 | 0.0 | 0.0 | 0.00 | 0.00 | 0.00 | |||
| 20260505031219 | 0 | 0.0 | 0.0 | 0.00 | 0.00 | 0.00 | |||
| 20260505031210 | 0 | 0.0 | 0.0 | 0.00 | 0.00 | 0.00 | |||
| 20260505031159 | 0 | 0.0 | 0.0 | 0.00 | 0.00 | 0.00 | |||
| 20260505031151 | 0 | 0.0 | 0.0 | 0.00 | 0.00 | 0.00 | |||
| 20260505031141 | 0 | 0.0 | 0.0 | 0.00 | 0.00 | 0.00 | |||
| 20260505031133 | 0 | 0.0 | 0.0 | 0.00 | 0.00 | 0.00 | |||
| 20260505031128 | 0 | 0.0 | 0.0 | 0.00 | 0.00 | 0.00 | |||
| 20260505030852 | 0 | 0.0 | 0.0 | 0.00 | 0.00 | 0.00 | |||
| 20260505030846 | 0 | 0.0 | 0.0 | 0.00 | 0.00 | 0.00 | |||
| 20260505030619 | 0 | 0.0 | 0.0 | 0.00 | 0.00 | 0.00 | |||
| 20260505030609 | 0 | 0.0 | 0.0 | 0.00 | 0.00 | 0.00 | |||
| 20260505030605 | 0 | 0.0 | 0.0 | 0.00 | 0.00 | 0.00 | |||
| 20260505030546 | 62 | 146 | 2.0 | 6.0 | 0.00 | 0.00 | 0.00 | 75 | 999.2 |
| 20260505030320 | 0 | 0.0 | 0.0 | 0.00 | 0.00 | 0.00 | |||
| 20260505030310 | 0 | 0.0 | 0.0 | 0.00 | 0.00 | 0.00 | |||
| 20260505030300 | 0 | 0.0 | 0.0 | 0.00 | 0.00 | 0.00 | |||
| 20260505030251 | 0 | 0.0 | 0.0 | 0.00 | 0.00 | 0.00 | |||
| 20260505030246 | 0 | 0.0 | 0.0 | 0.00 | 0.00 | 0.00 | |||
| 20260505030242 | 0 | 0.0 | 0.0 | 0.00 | 0.00 | 0.00 | |||
| 20260505025947 | 0 | 0.0 | 0.0 | 0.00 | 0.00 | 0.00 | |||
| 20260505025942 | 0 | 0.0 | 0.0 | 0.00 | 0.00 | 0.00 | |||
| 20260505025649 | 0 | 0.0 | 0.0 | 0.00 | 0.00 | 0.00 | |||
| 20260505025644 | 0 | 0.0 | 0.0 | 0.00 | 0.00 | 0.00 | |||
| 20260505025640 | 0 | 0.0 | 0.0 | 0.00 | 0.00 | 0.00 | |||
| 20260505025606 | 62 | 202 | 2.0 | 7.0 | 0.00 | 0.00 | 0.00 | 75 | 999.4 |
| 20260505025326 | 0 | 0.0 | 0.0 | 0.00 | 0.00 | 0.00 | |||
| 20260505025317 | 0 | 0.0 | 0.0 | 0.00 | 0.00 | 0.00 | |||
| 20260505025306 | 0 | 0.0 | 0.0 | 0.00 | 0.00 | 0.00 | |||
| 20260505025300 | 62 | 0 | 2.0 | 9.0 | 0.00 | 0.00 | 0.00 | 74 | 999.4 |
| 20260505024959 | 0 | 0.0 | 0.0 | 0.00 | 0.00 | 0.00 | |||
| 20260505024850 | 62 | 0 | 2.0 | 9.0 | 0.00 | 0.00 | 0.00 | 74 | 999.4 |
| 20260505024413 | 0 | 0.0 | 0.0 | 0.00 | 0.00 | 0.00 | |||
| 20260505024408 | 0 | 0.0 | 0.0 | 0.00 | 0.00 | 0.00 | |||
| 20260505024116 | 0 | 0.0 | 0.0 | 0.00 | 0.00 | 0.00 | |||
| 20260505024111 | 62 | 0 | 3.0 | 9.0 | 0.00 | 0.00 | 0.00 | 74 | 999.4 |
| 20260505023811 | 0 | 0.0 | 0.0 | 0.00 | 0.00 | 0.00 | |||
| 20260505023807 | 0 | 0.0 | 0.0 | 0.00 | 0.00 | 0.00 | |||
| 20260505023718 | 62 | 0 | 3.0 | 9.0 | 0.00 | 0.00 | 0.00 | 74 | 999.4 |
| 20260505023500 | 0 | 0.0 | 0.0 | 0.00 | 0.00 | 0.00 | |||
| 20260505023455 | 0 | 0.0 | 0.0 | 0.00 | 0.00 | 0.00 | |||
| 20260505023449 | 0 | 0.0 | 0.0 | 0.00 | 0.00 | 0.00 | |||
| 20260505023440 | 0 | 0.0 | 0.0 | 0.00 | 0.00 | 0.00 | |||
| 20260505023149 | 0 | 0.0 | 0.0 | 0.00 | 0.00 | 0.00 | |||
| 20260505022853 | 0 | 0.0 | 0.0 | 0.00 | 0.00 | 0.00 | |||
| 20260505022849 | 0 | 0.0 | 0.0 | 0.00 | 0.00 | 0.00 | |||
| 20260505022839 | 0 | 0.0 | 0.0 | 0.00 | 0.00 | 0.00 |